| time (UTC) | temp F | wind direction | speed MPH | gust MPH | rain 1hr in | rain 24hr in | rain mn in | humidity % | barometer mb |
| 20260902221705 | 69 | 82 | 1.0 | 3.0 | 0.00 | 0.00 | 0.00 | 86 | 1020.4 |
| 20260902221204 | 69 | 118 | 0.0 | 2.0 | 0.00 | 0.00 | 0.00 | 87 | 1020.4 |
| 20260902220705 | 69 | 122 | 0.0 | 5.0 | 0.00 | 0.00 | 0.00 | 86 | 1020.3 |
| 20260902214705 | 70 | 70 | 0.0 | 1.0 | 0.00 | 0.00 | 0.00 | 86 | 1020.2 |
| 20260902214204 | 70 | 69 | 0.0 | 1.0 | 0.00 | 0.00 | 0.00 | 86 | 1020.2 |
| 20260902213705 | 70 | 67 | 0.0 | 1.0 | 0.00 | 0.00 | 0.00 | 86 | 1020.3 |
| 20260902213204 | 70 | 67 | 0.0 | 1.0 | 0.00 | 0.00 | 0.00 | 85 | 1020.3 |
| 20260902210704 | 70 | 256 | 1.0 | 3.0 | 0.00 | 0.01 | 0.00 | 84 | 1019.9 |
| 20260902210205 | 70 | 80 | 0.0 | 2.0 | 0.00 | 0.01 | 0.00 | 84 | 1019.9 |
| 20260902205204 | 70 | 65 | 0.0 | 1.0 | 0.00 | 0.01 | 0.00 | 83 | 1020.2 |
| 20260902204204 | 70 | 123 | 1.0 | 6.0 | 0.00 | 0.01 | 0.00 | 82 | 1020.3 |
| 20260902203705 | 70 | 153 | 1.0 | 3.0 | 0.00 | 0.01 | 0.00 | 85 | 1020.4 |
| 20260902203204 | 70 | 69 | 1.0 | 5.0 | 0.00 | 0.01 | 0.00 | 83 | 1020.4 |
| 20260902200704 | 71 | 244 | 0.0 | 3.0 | 0.00 | 0.01 | 0.00 | 84 | 1020.7 |
| 20260902200205 | 71 | 79 | 1.0 | 3.0 | 0.00 | 0.01 | 0.00 | 84 | 1020.9 |
| 20260902194204 | 70 | 53 | 1.0 | 3.0 | 0.00 | 0.01 | 0.00 | 82 | 1021.0 |
| 20260902192704 | 70 | 116 | 0.0 | 2.0 | 0.00 | 0.01 | 0.00 | 83 | 1021.1 |
| 20260902191704 | 71 | 108 | 1.0 | 5.0 | 0.00 | 0.01 | 0.00 | 83 | 1021.2 |
| 20260902190205 | 71 | 300 | 0.0 | 1.0 | 0.00 | 0.01 | 0.00 | 85 | 1021.3 |
| 20260902185704 | 71 | 307 | 0.0 | 6.0 | 0.00 | 0.01 | 0.00 | 84 | 1021.3 |
| 20260902183705 | 71 | 245 | 1.0 | 3.0 | 0.00 | 0.01 | 0.00 | 85 | 1021.2 |
| 20260902182204 | 70 | 57 | 2.0 | 5.0 | 0.00 | 0.01 | 0.00 | 84 | 1021.0 |
| 20260902180705 | 71 | 153 | 0.0 | 3.0 | 0.00 | 0.01 | 0.00 | 84 | 1021.2 |
| 20260902174205 | 71 | 66 | 0.0 | 0.0 | 0.00 | 0.01 | 0.00 | 84 | 1021.2 |
| 20260902173704 | 71 | 48 | 0.0 | 0.0 | 0.00 | 0.01 | 0.00 | 85 | 1021.2 |
| 20260902172704 | 70 | 82 | 0.0 | 0.0 | 0.00 | 0.01 | 0.00 | 85 | 1021.3 |
| 20260902171704 | 70 | 62 | 0.0 | 0.0 | 0.00 | 0.01 | 0.00 | 86 | 1021.3 |
| 20260902170704 | 70 | 141 | 0.0 | 0.0 | 0.00 | 0.01 | 0.00 | 87 | 1021.5 |
| 20260902170204 | 70 | 84 | 0.0 | 0.0 | 0.00 | 0.01 | 0.00 | 87 | 1021.5 |
| 20260902164704 | 70 | 65 | 0.0 | 0.0 | 0.00 | 0.02 | 0.00 | 87 | 1021.4 |
| 20260902163704 | 69 | 135 | 0.0 | 0.0 | 0.00 | 0.02 | 0.00 | 87 | 1021.4 |
| 20260902163204 | 69 | 48 | 0.0 | 0.0 | 0.00 | 0.02 | 0.00 | 88 | 1021.6 |
| 20260902161204 | 69 | 63 | 0.0 | 0.0 | 0.00 | 0.02 | 0.00 | 88 | 1021.8 |
| 20260902160704 | 69 | 63 | 0.0 | 0.0 | 0.00 | 0.02 | 0.00 | 88 | 1021.9 |
| 20260902152204 | 69 | 26 | 0.0 | 0.0 | 0.00 | 0.02 | 0.00 | 88 | 1022.3 |
| 20260902151704 | 69 | 23 | 0.0 | 0.0 | 0.00 | 0.02 | 0.00 | 88 | 1022.2 |
| 20260902150704 | 68 | 47 | 0.0 | 0.0 | 0.00 | 0.02 | 0.00 | 90 | 1022.5 |
| 20260902150205 | 68 | 34 | 0.0 | 0.0 | 0.00 | 0.02 | 0.00 | 89 | 1022.5 |
| 20260902145704 | 68 | 301 | 0.0 | 0.0 | 0.00 | 0.02 | 0.00 | 90 | 1022.5 |
| 20260902144704 | 67 | 84 | 0.0 | 0.0 | 0.00 | 0.02 | 0.00 | 92 | 1022.5 |
| 20260902135704 | 65 | 98 | 0.0 | 0.0 | 0.00 | 0.03 | 0.00 | 97 | 1021.7 |
| 20260902133204 | 65 | 32 | 0.0 | 0.0 | 0.00 | 0.04 | 0.00 | 98 | 1021.5 |
| 20260902131704 | 64 | 89 | 0.0 | 0.0 | 0.00 | 0.07 | 0.00 | 98 | 1021.6 |
| 20260902130704 | 64 | 70 | 0.0 | 0.0 | 0.00 | 0.09 | 0.00 | 98 | 1021.9 |
| 20260902130204 | 64 | 70 | 0.0 | 0.0 | 0.00 | 0.09 | 0.00 | 99 | 1021.9 |
| 20260902124704 | 64 | 62 | 0.0 | 0.0 | 0.00 | 0.14 | 0.00 | 98 | 1021.8 |
| 20260902124204 | 64 | 68 | 0.0 | 0.0 | 0.00 | 0.17 | 0.00 | 99 | 1021.7 |
| 20260902123704 | 64 | 68 | 0.0 | 0.0 | 0.00 | 0.19 | 0.00 | 99 | 1021.8 |
| 20260902122204 | 63 | 73 | 0.0 | 0.0 | 0.00 | 0.25 | 0.00 | 98 | 1021.9 |
| 20260902120704 | 63 | 5 | 0.0 | 0.0 | 0.00 | 0.28 | 0.00 | 99 | 1022.0 |
| 20260902120204 | 63 | 5 | 0.0 | 0.0 | 0.00 | 0.29 | 0.00 | 99 | 1022.1 |
| 20260902115704 | 63 | 5 | 0.0 | 0.0 | 0.00 | 0.29 | 0.00 | 99 | 1022.0 |
| 20260902114204 | 63 | 5 | 0.0 | 0.0 | 0.00 | 0.29 | 0.00 | 98 | 1022.1 |
| 20260902113704 | 63 | 5 | 0.0 | 0.0 | 0.00 | 0.29 | 0.00 | 98 | 1022.2 |
| 20260902112705 | 62 | 5 | 0.0 | 0.0 | 0.00 | 0.29 | 0.00 | 98 | 1022.1 |
| 20260902111704 | 62 | 5 | 0.0 | 0.0 | 0.00 | 0.29 | 0.00 | 98 | 1021.9 |
| 20260902105704 | 62 | 5 | 0.0 | 0.0 | 0.00 | 0.29 | 0.00 | 98 | 1021.7 |
| 20260902105204 | 62 | 5 | 0.0 | 0.0 | 0.00 | 0.29 | 0.00 | 98 | 1021.7 |
| 20260902103204 | 62 | 72 | 0.0 | 0.0 | 0.00 | 0.29 | 0.00 | 98 | 1021.2 |
| 20260902102204 | 62 | 72 | 0.0 | 0.0 | 0.00 | 0.29 | 0.00 | 98 | 1021.1 |
| 20260902101204 | 62 | 72 | 0.0 | 0.0 | 0.00 | 0.29 | 0.00 | 98 | 1021.2 |
| 20260902100204 | 62 | 72 | 0.0 | 0.0 | 0.00 | 0.29 | 0.00 | 98 | 1021.2 |
| 20260902095704 | 62 | 72 | 0.0 | 0.0 | 0.00 | 0.29 | 0.00 | 98 | 1021.1 |
| 20260902094204 | 62 | 72 | 0.0 | 0.0 | 0.00 | 0.29 | 0.00 | 98 | 1020.8 |
| 20260902092204 | 62 | 72 | 0.0 | 0.0 | 0.00 | 0.29 | 0.00 | 98 | 1020.7 |
| 20260902091704 | 62 | 72 | 0.0 | 0.0 | 0.00 | 0.29 | 0.00 | 98 | 1020.7 |
| 20260902090704 | 62 | 72 | 0.0 | 0.0 | 0.00 | 0.29 | 0.00 | 98 | 1020.5 |
| 20260902090204 | 62 | 72 | 0.0 | 0.0 | 0.00 | 0.29 | 0.00 | 98 | 1020.7 |
| 20260902084704 | 63 | 72 | 0.0 | 0.0 | 0.00 | 0.29 | 0.00 | 97 | 1020.7 |
| 20260902082204 | 63 | 72 | 0.0 | 0.0 | 0.00 | 0.29 | 0.00 | 98 | 1020.5 |
| 20260902081704 | 63 | 72 | 0.0 | 0.0 | 0.00 | 0.29 | 0.00 | 98 | 1020.6 |
| 20260902081203 | 63 | 72 | 0.0 | 0.0 | 0.00 | 0.29 | 0.00 | 98 | 1020.6 |
| 20260902075704 | 63 | 72 | 0.0 | 0.0 | 0.00 | 0.29 | 0.00 | 98 | 1020.9 |
| 20260902075204 | 63 | 72 | 0.0 | 0.0 | 0.00 | 0.29 | 0.00 | 98 | 1020.8 |
| 20260902074704 | 63 | 72 | 0.0 | 0.0 | 0.00 | 0.29 | 0.00 | 98 | 1020.9 |
| 20260902074204 | 63 | 72 | 0.0 | 0.0 | 0.00 | 0.29 | 0.00 | 98 | 1020.9 |
| 20260902073704 | 63 | 72 | 0.0 | 0.0 | 0.00 | 0.29 | 0.00 | 98 | 1020.9 |
| 20260902073204 | 63 | 72 | 0.0 | 0.0 | 0.00 | 0.29 | 0.00 | 98 | 1021.0 |
| 20260902072704 | 63 | 72 | 0.0 | 0.0 | 0.00 | 0.29 | 0.00 | 98 | 1021.0 |
| 20260902071704 | 63 | 72 | 0.0 | 0.0 | 0.00 | 0.29 | 0.00 | 98 | 1020.7 |
| 20260902070704 | 63 | 72 | 0.0 | 0.0 | 0.00 | 0.29 | 0.00 | 98 | 1020.6 |
| 20260902070203 | 63 | 72 | 0.0 | 0.0 | 0.00 | 0.29 | 0.00 | 98 | 1020.7 |
| 20260902065704 | 63 | 72 | 0.0 | 0.0 | 0.00 | 0.29 | 0.00 | 98 | 1020.5 |
| 20260902065204 | 63 | 72 | 0.0 | 0.0 | 0.00 | 0.29 | 0.00 | 98 | 1020.5 |
| 20260902064703 | 63 | 72 | 0.0 | 0.0 | 0.00 | 0.29 | 0.00 | 98 | 1020.5 |
| 20260902064204 | 63 | 72 | 0.0 | 0.0 | 0.00 | 0.29 | 0.00 | 98 | 1020.6 |
| 20260902063704 | 63 | 72 | 0.0 | 0.0 | 0.00 | 0.29 | 0.00 | 98 | 1020.6 |
| 20260902063204 | 63 | 72 | 0.0 | 0.0 | 0.00 | 0.29 | 0.00 | 98 | 1020.5 |
| 20260902062704 | 63 | 72 | 0.0 | 0.0 | 0.00 | 0.29 | 0.00 | 98 | 1020.6 |
| 20260902062204 | 63 | 72 | 0.0 | 0.0 | 0.00 | 0.29 | 0.00 | 98 | 1020.6 |
| 20260902060704 | 63 | 73 | 0.0 | 0.0 | 0.00 | 0.29 | 0.00 | 98 | 1020.6 |
| 20260902060204 | 63 | 73 | 0.0 | 0.0 | 0.00 | 0.29 | 0.00 | 98 | 1020.6 |
| 20260902055704 | 63 | 73 | 0.0 | 0.0 | 0.00 | 0.29 | 0.00 | 98 | 1020.6 |
| 20260902055203 | 63 | 73 | 0.0 | 0.0 | 0.00 | 0.29 | 0.00 | 98 | 1020.6 |
| 20260902054704 | 63 | 73 | 0.0 | 0.0 | 0.00 | 0.29 | 0.00 | 98 | 1020.5 |
| 20260902054204 | 63 | 73 | 0.0 | 0.0 | 0.00 | 0.29 | 0.00 | 98 | 1020.5 |
| 20260902053704 | 63 | 73 | 0.0 | 0.0 | 0.00 | 0.29 | 0.00 | 98 | 1020.5 |
| 20260902053204 | 63 | 73 | 0.0 | 0.0 | 0.00 | 0.29 | 0.00 | 98 | 1020.5 |
| 20260902051704 | 63 | 73 | 0.0 | 0.0 | 0.00 | 0.29 | 0.00 | 97 | 1020.3 |
| 20260902051203 | 63 | 73 | 0.0 | 0.0 | 0.00 | 0.29 | 0.00 | 97 | 1020.3 |
| 20260902050704 | 63 | 73 | 0.0 | 0.0 | 0.00 | 0.29 | 0.00 | 97 | 1020.2 |
| 20260902050204 | 63 | 73 | 0.0 | 0.0 | 0.00 | 0.29 | 0.00 | 97 | 1020.1 |
| 20260902045703 | 63 | 73 | 0.0 | 0.0 | 0.00 | 0.29 | 0.00 | 98 | 1020.1 |
| 20260902044204 | 63 | 73 | 0.0 | 0.0 | 0.00 | 0.29 | 0.00 | 97 | 1019.8 |
| 20260902042704 | 63 | 73 | 0.0 | 0.0 | 0.00 | 0.29 | 0.00 | 97 | 1019.7 |
| 20260902042204 | 63 | 73 | 0.0 | 0.0 | 0.00 | 0.29 | 0.00 | 97 | 1019.7 |
| 20260902041203 | 63 | 73 | 0.0 | 0.0 | 0.00 | 0.29 | 0.00 | 97 | 1019.5 |
| 20260902040704 | 63 | 73 | 0.0 | 0.0 | 0.00 | 0.29 | 0.00 | 97 | 1019.4 |
| 20260902035703 | 63 | 73 | 0.0 | 0.0 | 0.00 | 0.29 | 0.29 | 97 | 1019.2 |
| 20260902035204 | 63 | 73 | 0.0 | 0.0 | 0.00 | 0.29 | 0.29 | 97 | 1019.2 |
| 20260902032704 | 64 | 73 | 0.0 | 0.0 | 0.00 | 0.29 | 0.29 | 97 | 1018.9 |
| 20260902032204 | 64 | 73 | 0.0 | 0.0 | 0.00 | 0.29 | 0.29 | 97 | 1018.9 |
| 20260902031204 | 64 | 73 | 0.0 | 0.0 | 0.00 | 0.29 | 0.29 | 97 | 1019.0 |
| 20260902030203 | 64 | 73 | 0.0 | 0.0 | 0.00 | 0.29 | 0.29 | 97 | 1019.1 |
| 20260902025704 | 64 | 73 | 0.0 | 0.0 | 0.00 | 0.29 | 0.29 | 97 | 1019.1 |
| 20260902025203 | 64 | 73 | 0.0 | 0.0 | 0.00 | 0.29 | 0.29 | 97 | 1019.0 |
| 20260902024703 | 64 | 73 | 0.0 | 0.0 | 0.00 | 0.29 | 0.29 | 97 | 1019.1 |
| 20260902023703 | 64 | 73 | 0.0 | 0.0 | 0.00 | 0.29 | 0.29 | 97 | 1019.1 |
| 20260902023204 | 64 | 73 | 0.0 | 0.0 | 0.00 | 0.29 | 0.29 | 97 | 1019.1 |
| 20260902022704 | 64 | 73 | 0.0 | 0.0 | 0.00 | 0.29 | 0.29 | 97 | 1019.2 |
| 20260902021203 | 64 | 73 | 0.0 | 0.0 | 0.00 | 0.29 | 0.29 | 97 | 1019.2 |
| 20260902012703 | 64 | 74 | 0.0 | 0.0 | 0.00 | 0.29 | 0.29 | 97 | 1018.9 |
| 20260902012203 | 64 | 74 | 0.0 | 0.0 | 0.00 | 0.29 | 0.29 | 97 | 1019.0 |
| 20260902011705 | 64 | 74 | 0.0 | 0.0 | 0.00 | 0.29 | 0.29 | 97 | 1019.0 |
| 20260902005705 | 64 | 74 | 0.0 | 0.0 | 0.00 | 0.29 | 0.29 | 97 | 1019.0 |
| 20260902004704 | 64 | 74 | 0.0 | 0.0 | 0.00 | 0.29 | 0.29 | 97 | 1018.8 |
| 20260902002705 | 64 | 74 | 0.0 | 0.0 | 0.00 | 0.29 | 0.29 | 97 | 1018.7 |
| 20260902001705 | 64 | 74 | 0.0 | 0.0 | 0.00 | 0.29 | 0.29 | 97 | 1018.5 |
| 20260902000705 | 65 | 74 | 0.0 | 0.0 | 0.00 | 0.29 | 0.29 | 97 | 1018.5 |
| 20260901234205 | 65 | 74 | 0.0 | 0.0 | 0.00 | 0.29 | 0.29 | 97 | 1018.3 |
| 20260901233204 | 65 | 74 | 0.0 | 0.0 | 0.00 | 0.29 | 0.29 | 97 | 1018.4 |
| 20260901232704 | 65 | 74 | 0.0 | 0.0 | 0.00 | 0.29 | 0.29 | 97 | 1018.5 |
| 20260901230704 | 65 | 74 | 0.0 | 0.0 | 0.00 | 0.29 | 0.29 | 97 | 1018.4 |
| 20260901230204 | 65 | 74 | 0.0 | 0.0 | 0.00 | 0.29 | 0.29 | 97 | 1018.3 |
| 20260901225205 | 65 | 74 | 0.0 | 0.0 | 0.00 | 0.29 | 0.29 | 97 | 1018.4 |
| 20260901224704 | 65 | 74 | 0.0 | 0.0 | 0.00 | 0.29 | 0.29 | 97 | 1018.4 |